TimeEDT,TemperatureF,Dew PointF,Humidity,Sea Level PressureIn,VisibilityMPH,Wind Direction,Wind SpeedMPH,Gust SpeedMPH,PrecipitationIn,Events,Conditions,WindDirDegrees,DateUTC
12:15 AM,48.4,37.2,65,30.43,10.0,North,-9999.0,-,N/A,,Clear,0,2013-04-22 04:15:00
12:35 AM,46.2,38.1,73,30.43,10.0,North,-9999.0,-,N/A,,Clear,0,2013-04-22 04:35:00
12:55 AM,46.0,37.9,73,30.43,10.0,North,-9999.0,-,N/A,,Clear,0,2013-04-22 04:55:00
1:15 AM,44.4,38.3,79,30.43,10.0,North,-9999.0,-,N/A,,Clear,0,2013-04-22 05:15:00
1:35 AM,43.7,37.9,80,30.42,10.0,North,-9999.0,-,N/A,,Clear,0,2013-04-22 05:35:00
1:55 AM,43.5,37.8,80,30.42,10.0,North,-9999.0,-,N/A,,Clear,0,2013-04-22 05:55:00
2:15 AM,43.0,37.9,82,30.42,10.0,North,-9999.0,-,N/A,,Clear,0,2013-04-22 06:15:00
2:35 AM,43.5,37.8,80,30.42,10.0,North,-9999.0,-,N/A,,Clear,0,2013-04-22 06:35:00
2:55 AM,43.0,37.6,81,30.42,10.0,North,-9999.0,-,N/A,,Clear,0,2013-04-22 06:55:00
3:15 AM,42.4,37.6,83,30.41,10.0,North,-9999.0,-,N/A,,Clear,0,2013-04-22 07:15:00
3:35 AM,42.6,37.4,82,30.41,10.0,North,-9999.0,-,N/A,,Clear,0,2013-04-22 07:35:00
3:55 AM,42.6,37.4,82,30.41,10.0,North,-9999.0,-,N/A,,Clear,0,2013-04-22 07:55:00
4:15 AM,43.7,37.0,77,30.41,10.0,North,-9999.0,-,N/A,,Clear,0,2013-04-22 08:15:00
4:35 AM,43.9,36.7,76,30.41,10.0,North,-9999.0,-,N/A,,Clear,0,2013-04-22 08:35:00
4:55 AM,43.5,36.5,76,30.41,10.0,North,-9999.0,-,N/A,,Clear,0,2013-04-22 08:55:00
5:15 AM,45.0,36.0,71,30.41,10.0,North,-9999.0,-,N/A,,Clear,0,2013-04-22 09:15:00
5:35 AM,43.7,36.1,75,30.41,10.0,North,-9999.0,-,N/A,,Clear,0,2013-04-22 09:35:00
5:55 AM,43.2,36.0,76,30.41,10.0,North,-9999.0,-,N/A,,Clear,0,2013-04-22 09:55:00
6:15 AM,40.8,36.5,85,30.42,10.0,North,-9999.0,-,N/A,,Clear,0,2013-04-22 10:15:00
6:35 AM,39.6,36.5,89,30.42,10.0,North,-9999.0,-,N/A,,Clear,0,2013-04-22 10:35:00
6:55 AM,39.2,36.3,89,30.42,10.0,North,-9999.0,-,N/A,,Clear,0,2013-04-22 10:55:00
7:15 AM,40.3,36.5,86,30.43,10.0,North,-9999.0,-,N/A,,Clear,0,2013-04-22 11:15:00
7:35 AM,42.6,36.0,77,30.43,10.0,North,-9999.0,-,N/A,,Clear,0,2013-04-22 11:35:00
7:55 AM,44.2,35.6,72,30.44,10.0,North,-9999.0,-,N/A,,Clear,0,2013-04-22 11:55:00
8:15 AM,44.8,35.6,70,30.44,10.0,North,-9999.0,-,N/A,,Clear,0,2013-04-22 12:15:00
8:35 AM,45.3,35.8,69,30.44,10.0,North,-9999.0,-,N/A,,Clear,0,2013-04-22 12:35:00
8:55 AM,47.1,35.6,64,30.45,10.0,North,-9999.0,-,N/A,,Clear,0,2013-04-22 12:55:00
9:15 AM,48.7,35.8,61,30.45,10.0,North,-9999.0,-,N/A,,Clear,0,2013-04-22 13:15:00
9:35 AM,50.2,36.0,58,30.44,10.0,North,-9999.0,-,N/A,,Clear,0,2013-04-22 13:35:00
9:55 AM,50.7,36.0,57,30.44,10.0,North,-9999.0,-,N/A,,Clear,0,2013-04-22 13:55:00
10:35 AM,54.1,36.5,51,30.43,10.0,North,-9999.0,-,N/A,,Clear,0,2013-04-22 14:35:00
10:55 AM,55.6,36.3,48,30.43,10.0,North,-9999.0,-,N/A,,Clear,0,2013-04-22 14:55:00
11:15 AM,56.3,36.9,48,30.42,10.0,North,-9999.0,-,N/A,,Clear,0,2013-04-22 15:15:00
11:35 AM,58.1,37.4,46,30.41,10.0,North,-9999.0,-,N/A,,Clear,0,2013-04-22 15:35:00
11:55 AM,58.5,36.1,43,30.40,10.0,North,-9999.0,-,N/A,,Clear,0,2013-04-22 15:55:00
12:35 PM,61.7,36.1,39,30.38,10.0,North,-9999.0,-,N/A,,Clear,0,2013-04-22 16:35:00
12:55 PM,61.3,35.1,37,30.36,10.0,North,-9999.0,-,N/A,,Clear,0,2013-04-22 16:55:00
1:15 PM,62.8,34.7,35,30.35,10.0,North,-9999.0,-,N/A,,Clear,0,2013-04-22 17:15:00
1:35 PM,64.0,34.9,34,30.34,10.0,North,-9999.0,-,N/A,,Clear,0,2013-04-22 17:35:00
1:55 PM,65.7,36.7,34,30.33,10.0,North,-9999.0,-,N/A,,Clear,0,2013-04-22 17:55:00
2:15 PM,66.2,34.7,31,30.32,10.0,North,-9999.0,-,N/A,,Clear,0,2013-04-22 18:15:00
2:35 PM,66.9,35.1,31,30.32,10.0,North,-9999.0,-,N/A,,Clear,0,2013-04-22 18:35:00
2:55 PM,66.4,34.7,31,30.31,10.0,North,-9999.0,-,N/A,,Clear,0,2013-04-22 18:55:00
3:15 PM,67.3,34.5,30,30.30,10.0,North,-9999.0,-,N/A,,Clear,0,2013-04-22 19:15:00
3:35 PM,67.6,34.9,30,30.29,10.0,North,-9999.0,-,N/A,,Clear,0,2013-04-22 19:35:00
3:55 PM,67.1,34.0,29,30.28,10.0,North,-9999.0,-,N/A,,Clear,0,2013-04-22 19:55:00
4:15 PM,67.8,34.7,29,30.27,10.0,North,-9999.0,-,N/A,,Clear,0,2013-04-22 20:15:00
4:35 PM,68.5,35.1,29,30.26,10.0,North,-9999.0,-,N/A,,Clear,0,2013-04-22 20:35:00
4:55 PM,68.2,34.9,29,30.26,10.0,North,-9999.0,-,N/A,,Clear,0,2013-04-22 20:55:00
5:15 PM,68.5,34.5,29,30.26,10.0,North,-9999.0,-,N/A,,Clear,0,2013-04-22 21:15:00
5:35 PM,67.6,34.3,29,30.26,10.0,North,-9999.0,-,N/A,,Clear,0,2013-04-22 21:35:00
5:55 PM,67.6,34.0,29,30.26,10.0,North,-9999.0,-,N/A,,Clear,0,2013-04-22 21:55:00
6:15 PM,67.8,34.0,29,30.26,10.0,North,-9999.0,-,N/A,,Clear,0,2013-04-22 22:15:00
6:35 PM,66.4,33.1,29,30.26,10.0,North,-9999.0,-,N/A,,Clear,0,2013-04-22 22:35:00
6:55 PM,65.5,32.7,30,30.26,10.0,North,-9999.0,-,N/A,,Clear,0,2013-04-22 22:55:00
7:15 PM,64.0,32.0,30,30.26,10.0,North,-9999.0,-,N/A,,Clear,0,2013-04-22 23:15:00
7:35 PM,62.8,31.8,31,30.26,10.0,North,-9999.0,-,N/A,,Clear,0,2013-04-22 23:35:00
7:55 PM,61.7,32.0,33,30.26,10.0,North,-9999.0,-,N/A,,Clear,0,2013-04-22 23:55:00
8:15 PM,58.3,32.2,37,30.26,10.0,North,-9999.0,-,N/A,,Clear,0,2013-04-23 00:15:00
8:35 PM,55.4,34.7,46,30.26,10.0,North,-9999.0,-,N/A,,Clear,0,2013-04-23 00:35:00
8:55 PM,52.9,36.1,53,30.28,10.0,North,-9999.0,-,N/A,,Clear,0,2013-04-23 00:55:00
9:15 PM,51.8,34.5,52,30.28,10.0,North,-9999.0,-,N/A,,Clear,0,2013-04-23 01:15:00
9:35 PM,52.3,33.8,49,30.28,10.0,North,-9999.0,-,N/A,,Clear,0,2013-04-23 01:35:00
9:55 PM,53.4,30.9,42,30.29,10.0,North,-9999.0,-,N/A,,Clear,0,2013-04-23 01:55:00
10:15 PM,56.1,28.8,35,30.29,10.0,North,-9999.0,-,N/A,,Clear,0,2013-04-23 02:15:00
10:35 PM,55.4,28.6,36,30.29,10.0,North,-9999.0,-,N/A,,Clear,0,2013-04-23 02:35:00
10:55 PM,55.0,28.9,37,30.30,10.0,North,-9999.0,-,N/A,,Clear,0,2013-04-23 02:55:00
11:15 PM,51.4,32.0,47,30.30,10.0,North,-9999.0,-,N/A,,Clear,0,2013-04-23 03:15:00
11:35 PM,51.3,30.4,45,30.29,10.0,North,-9999.0,-,N/A,,Clear,0,2013-04-23 03:35:00
11:55 PM,52.2,27.5,39,30.29,10.0,North,-9999.0,-,N/A,,Clear,0,2013-04-23 03:55:00